This is the latest recevied weather packets stored in our database for station/object N5COP-13. If no packets are shown the sender has not sent any weather packets the latest 10 day(s).
| Time | Temp. | Humidity | Pressure | Rain* | Wind** | Luminosity | Snow |
|---|---|---|---|---|---|---|---|
| 1778014397 | 17.22° C | 39% | 1010.7 hPa | 0 mm | - | 378 W/m² | - |
| 1778014093 | 17.78° C | 39% | 1010.9 hPa | 0 mm | - | 423 W/m² | - |
| 1778013791 | 18.33° C | 39% | 1011.3 hPa | 0 mm | - | 370 W/m² | - |
| 1778013489 | 17.78° C | 38% | 1011.2 hPa | 0 mm | - | 459 W/m² | - |
| 1778013185 | 17.78° C | 39% | 1011.1 hPa | 0 mm | - | 468 W/m² | - |
| 1778012881 | 17.78° C | 39% | 1011.1 hPa | 0 mm | - | 557 W/m² | - |
| 1778012577 | 17.78° C | 39% | 1011.2 hPa | 0 mm | - | 404 W/m² | - |
| 1778012274 | 17.78° C | 39% | 1010.9 hPa | 0 mm | - | 526 W/m² | - |
| 1778011972 | 18.33° C | 38% | 1010.9 hPa | 0 mm | - | 361 W/m² | - |
| 1778011670 | 18.33° C | 39% | 1011.2 hPa | 0 mm | - | 373 W/m² | - |
| 1778011367 | 17.78° C | 40% | 1010.9 hPa | 0 mm | - | 549 W/m² | - |
| 1778011062 | 17.78° C | 39% | 1010.9 hPa | 0 mm | - | 405 W/m² | - |
| 1778010760 | 17.78° C | 39% | 1010.9 hPa | 0 mm | - | 421 W/m² | - |
| 1778010457 | 18.33° C | 39% | 1011.2 hPa | 0 mm | - | 485 W/m² | - |
| 1778010153 | 17.78° C | 40% | 1010.9 hPa | 0 mm | - | 796 W/m² | - |
| 1778009849 | 17.78° C | 40% | 1010.9 hPa | 0 mm | - | 646 W/m² | - |
| 1778009547 | 17.78° C | 39% | 1010.7 hPa | 0 mm | - | 646 W/m² | - |
| 1778009245 | 18.33° C | 39% | 1010.9 hPa | 0 mm | - | 681 W/m² | - |
| 1778008942 | 18.33° C | 40% | 1010.8 hPa | 0 mm | - | 591 W/m² | - |
| 1778008640 | 17.78° C | 41% | 1011.1 hPa | 0 mm | - | 680 W/m² | - |
| 1778008339 | 17.78° C | 40% | 1010.7 hPa | 0 mm | - | 653 W/m² | - |
| 1778008034 | 18.33° C | 40% | 1011.2 hPa | 0 mm | - | 442 W/m² | - |
| 1778007734 | 17.78° C | 41% | 1011.3 hPa | 0 mm | - | 840 W/m² | - |
| 1778007431 | 17.22° C | 42% | 1011.4 hPa | 0 mm | - | 889 W/m² | - |
| 1778007127 | 16.67° C | 42% | 1011.6 hPa | 0 mm | - | 772 W/m² | - |
* Rain latest hour (hover to see other rain measurements)
** Current wind speed in m/s (hover to see current wind gust speed)